Weather History for KRDU - October, 2013

Change the Weather History Date:

Tuesday, October 22, 2013

  Actual Average Record
Temperature  
Mean Temperature 58 °F 59 °F  
Max Temperature 64 °F 71 °F 86 °F (1947)
Min Temperature 51 °F 48 °F 26 °F (1974)
Degree Days  
Heating Degree Days 7 7  
Month to date heating degree days 59 97  
Since 1 July heating degree days 70 118  
Cooling Degree Days 0 1  
Month to date cooling degree days 53 44  
Year to date cooling degree days 1548 1712  
Growing Degree Days 8 (Base 50)    
Moisture  
Dew Point 53 °F    
Average Humidity 86    
Maximum Humidity 93    
Minimum Humidity 78    
Precipitation  
Precipitation T in 0.10 in 1.23 in (1912)
Month to date precipitation 1.41 2.35  
Year to date precipitation 41.79 36.25  
Sea Level Pressure  
Sea Level Pressure 29.92 in    
Wind  
Wind Speed 2 mph (SW)    
Max Wind Speed 9 mph    
Max Gust Speed 10 mph    
Visibility 9 miles    
Events Rain    
T = Trace of Precipitation, MM = Missing Value Source: NWS Daily Summary

Daily Weather History Graph

Daily Weather History Graph

Search for Another Location

Airport or City:

Trip Planner

Search our weather history database for the weather conditions in past years. The results will help you decide how hot, cold, wet, or windy it might be!

Date:

Astronomy

Oct. 22, 2013 Rise Set
Actual Time 7:28 AM EDT 6:30 PM EDT
Civil Twilight 7:02 AM EDT 6:56 PM EDT
Nautical Twilight 6:32 AM EDT 7:26 PM EDT
Astronomical Twilight 6:02 AM EDT 7:55 PM EDT
Moon 9:14 PM EDT (10/22) 10:50 AM EDT (10/22)
Length of Visible Light 11h 54m
Length of Day
11h 02m
Waning Gibbous, 87% of the Moon is Illuminated
Oct 22
Waning Gibbous
Oct 26
Last Quarter
Nov 3
New
Nov 10
First Quarter
Nov 17
Full

Hourly Weather History & Observations

Time (EDT) Temp. Dew Point Humidity Pressure Visibility Wind Dir Wind Speed Gust Speed Precip Events Conditions
12:51 AM 54.0 °F 48.0 °F 80% 30.00 in 10.0 mi Calm Calm - N/A   Overcast
1:51 AM 53.1 °F 48.0 °F 83% 30.01 in 10.0 mi Calm Calm - N/A   Overcast
2:51 AM 52.0 °F 48.0 °F 86% 30.00 in 10.0 mi Calm Calm - N/A   Mostly Cloudy
3:51 AM 51.1 °F 48.9 °F 92% 29.99 in 10.0 mi WSW 3.5 mph - N/A   Mostly Cloudy
4:51 AM 53.1 °F 48.0 °F 83% 29.99 in 10.0 mi Calm Calm - N/A   Mostly Cloudy
5:51 AM 54.0 °F 48.0 °F 80% 29.97 in 10.0 mi Calm Calm - N/A   Mostly Cloudy
6:51 AM 54.0 °F 48.9 °F 83% 29.96 in 10.0 mi Calm Calm - N/A   Mostly Cloudy
7:51 AM 54.0 °F 50.0 °F 86% 29.95 in 10.0 mi WSW 3.5 mph - N/A   Mostly Cloudy
8:51 AM 55.9 °F 52.0 °F 87% 29.96 in 10.0 mi SW 4.6 mph - N/A   Overcast
9:51 AM 57.0 °F 52.0 °F 83% 29.98 in 10.0 mi SW 6.9 mph - N/A   Overcast
10:51 AM 59.0 °F 53.1 °F 81% 29.96 in 10.0 mi WSW 6.9 mph - N/A   Overcast
11:51 AM 60.1 °F 54.0 °F 80% 29.94 in 10.0 mi WSW 4.6 mph - N/A   Mostly Cloudy
12:51 PM 62.1 °F 55.0 °F 78% 29.91 in 10.0 mi WSW 4.6 mph - N/A   Mostly Cloudy
1:51 PM 62.1 °F 55.0 °F 78% 29.89 in 10.0 mi Calm Calm - N/A   Mostly Cloudy
2:51 PM 63.0 °F 55.9 °F 78% 29.88 in 10.0 mi South 4.6 mph - 0.00 in Rain Light Rain
3:51 PM 63.0 °F 55.9 °F 78% 29.88 in 10.0 mi SSW 5.8 mph - 0.00 in Rain Light Rain
4:51 PM 63.0 °F 55.9 °F 78% 29.87 in 10.0 mi SSW 5.8 mph - 0.00 in   Overcast
5:51 PM 62.1 °F 57.0 °F 84% 29.86 in 8.0 mi SSW 3.5 mph - 0.00 in Rain Light Rain
6:51 PM 61.0 °F 57.0 °F 87% 29.85 in 10.0 mi Calm Calm - 0.00 in   Mostly Cloudy
7:51 PM 61.0 °F 57.0 °F 87% 29.86 in 9.0 mi Calm Calm - N/A   Mostly Cloudy
8:51 PM 60.1 °F 57.0 °F 90% 29.85 in 7.0 mi South 3.5 mph - N/A   Mostly Cloudy
9:51 PM 57.9 °F 55.9 °F 93% 29.85 in 7.0 mi Calm Calm - N/A   Mostly Cloudy
10:51 PM 57.0 °F 55.0 °F 93% 29.84 in 5.0 mi Calm Calm - N/A   Mostly Cloudy
11:51 PM 57.9 °F 55.9 °F 93% 29.81 in 5.0 mi Calm Calm - N/A   Scattered Clouds